This is the latest recevied weather packets stored in our database for station/object SP1BMW-13. If no packets are shown the sender has not sent any weather packets the latest 10 day(s).
| Time | Temp. | Humidity | Pressure | Rain* | Wind** | Luminosity | Snow |
|---|---|---|---|---|---|---|---|
| 1787961619 | 20° C | 87% | 1007.8 hPa | 0 mm | 0.45 m/s, 296° | 0 W/m² | - |
| 1787961560 | 20° C | 87% | 1007.7 hPa | 0 mm | 0 m/s | 0 W/m² | - |
| 1787961500 | 20° C | 87% | 1007.9 hPa | 0 mm | 0.45 m/s, 191° | 0 W/m² | - |
| 1787961439 | 20° C | 87% | 1007.8 hPa | 0 mm | 0 m/s | 0 W/m² | - |
| 1787961379 | 20° C | 87% | 1007.9 hPa | 0 mm | 0.45 m/s, 274° | 0 W/m² | - |
| 1787961319 | 20° C | 87% | 1007.8 hPa | 0 mm | 0.45 m/s, 220° | 0 W/m² | - |
| 1787961259 | 20° C | 87% | 1007.7 hPa | 0 mm | 0 m/s | 0 W/m² | - |
| 1787961199 | 20° C | 87% | 1007.9 hPa | 0 mm | 0 m/s | 0 W/m² | - |
| 1787961140 | 20° C | 87% | 1007.8 hPa | 0 mm | 0.45 m/s, 165° | 0 W/m² | - |
| 1787961079 | 20° C | 87% | 1007.8 hPa | 0 mm | 0.45 m/s, 200° | 0 W/m² | - |
| 1787961019 | 20° C | 87% | 1007.8 hPa | 0 mm | 0 m/s | 0 W/m² | - |
| 1787960959 | 20° C | 87% | 1007.7 hPa | 0 mm | 0.45 m/s, 259° | 0 W/m² | - |
| 1787960900 | 20° C | 87% | 1007.7 hPa | 0 mm | 0.89 m/s, 282° | 0 W/m² | - |
| 1787960839 | 20° C | 87% | 1007.7 hPa | 0 mm | 0.45 m/s, 293° | 0 W/m² | - |
| 1787960779 | 20° C | 87% | 1007.7 hPa | 0 mm | 0 m/s | 0 W/m² | - |
| 1787960719 | 20° C | 87% | 1007.8 hPa | 0 mm | 0.45 m/s, 298° | 0 W/m² | - |
| 1787960659 | 20° C | 87% | 1007.8 hPa | 0 mm | 0 m/s | 0 W/m² | - |
| 1787960599 | 20° C | 87% | 1007.9 hPa | 0 mm | 0 m/s | 0 W/m² | - |
| 1787960539 | 20° C | 87% | 1007.7 hPa | 0 mm | 0.45 m/s, 274° | 0 W/m² | - |
| 1787960479 | 20° C | 87% | 1007.7 hPa | 0 mm | 0.89 m/s, 173° | 0 W/m² | - |
| 1787960419 | 20° C | 87% | 1007.6 hPa | 0 mm | 0 m/s | 0 W/m² | - |
| 1787960359 | 20° C | 87% | 1007.7 hPa | 0 mm | 0.45 m/s, 263° | 0 W/m² | - |
| 1787960299 | 20° C | 86% | 1007.5 hPa | 0 mm | 0.45 m/s, 290° | 0 W/m² | - |
| 1787960239 | 20° C | 87% | 1007.6 hPa | 0 mm | 0 m/s | 0 W/m² | - |
| 1787960179 | 20° C | 86% | 1007.6 hPa | 0 mm | 0 m/s | 0 W/m² | - |
* Rain latest hour (hover to see other rain measurements)
** Current wind speed in m/s (hover to see current wind gust speed)